User: anonymous   Login
Location: Unspecified
(0.0000°N, 0.0000°E)
Time: 08:51:17
(UTC+02:00)
Language:

Atlas Centaur 2 - Orbit

View from above orbital plane
View from above orbital plane
View from above satellite
View from above satellite

Ground track
Ground track

The orbit data is extracted from the following two-line orbital elements,

1 00694U 63047A   18116.70210734  .00000510  00000-0  50730-4 0  9995
2 00694  30.3592 239.7215 0587143 231.9389 122.6817 14.02306439726751
Epoch (UTC): 26 April 2018 16:51:02
Eccentricity: 0.0587143
inclination: 30.3592°
perigee height: 459 km
apogee height: 1312 km
right ascension of ascending node: 239.7215°
argument of perigee: 231.9389°
revolutions per day: 14.02306439
mean anomaly at epoch: 122.6817°
orbit number at epoch: 72675

The dashed part of the orbit path shows where the satellite is in the earth's shadow,  

DLR